[[{"header":{"parameterUnit":"m.s-1","parameterCategory":1,"la1":30.2991,"la2":30.254,"lo1":-89.0895,"lo2":-89.0444,"dx":0.0017,"dy":0.0017,"nx":28,"ny":28,"refTime":"2022-11-30T15:00:00:Z","depth":0,"parameterNumber":2,"parameterNumberName":"U-component_of_WINDS"},"data":[0,0,0,0,0,0,0,0,0,0,0,0,0,0,0,0,0,0,0,0,0,0,0,0,0,0,0,0,0,0,0,0,0,0,0,0,0,0,0,0,0,0,0,0,0,0,0,0,0,0,0,0,0,0,0,0,0,0,0.5242,0.5242,0,0.5291,0.5292,0.5292,0.5308,0.5307,0.5307,0.5307,0.5357,0.5359,0.536,0,0,0,0,0,0,0,0,0,0,0,0,0,0.5162,0.5164,0.5242,0.5242,0.5243,0.5291,0.5292,0.5292,0.5308,0.5307,0.5307,0.5307,0.5357,0.5359,0.536,0,0,0,0,0,0,0,0,0,0,0,0,0,0.5203,0.5164,0.5241,0.5256,0.5258,0.5291,0.5292,0.5292,0.5308,0.5307,0.5307,0.5307,0.5356,0.5358,0.5361,0.5382,0,0,0.5368,0.5369,0,0,0,0,0,0,0,0,0.52,0.5205,0.5254,0.5255,0.5257,0.5293,0.5282,0.5322,0.5308,0.5289,0.5307,0.5307,0.5336,0.534,0.535,0.5384,0.5386,0.5368,0.5369,0.537,0.5371,0,0,0,0,0,0,0,0.5197,0.5203,0.5261,0.5254,0.5257,0.5261,0.5266,0.529,0.5314,0.5291,0.5292,0.5297,0.5337,0.5348,0.5351,0.5387,0.5368,0.537,0.5371,0.5372,0.5444,0.5444,0,0,0,0,0,0,0.5192,0.5201,0.526,0.5263,0.5227,0.5263,0.5269,0.5282,0.5314,0.5318,0.5298,0.5298,0.5344,0.5349,0.5353,0.5382,0.537,0.5373,0.5374,0.5443,0.5444,0.5445,0,0,0,0,0,0,0.519,0.5197,0.5258,0.5232,0.524,0.5264,0.5279,0.5283,0.5294,0.5319,0.5323,0.5304,0.5344,0.535,0.5375,0.5383,0.5374,0.5376,0.5443,0.5444,0.5444,0.5438,0,0,0,0,0,0,0.5188,0.5196,0.5204,0.5232,0.5242,0.5278,0.528,0.5284,0.5298,0.5299,0.5326,0.533,0.5344,0.5372,0.5378,0.5387,0.5378,0.5442,0.5443,0.5444,0.5437,0.5438,0.5439,0,0,0,0,0,0.5185,0.52,0.5204,0.5211,0.5252,0.5279,0.5284,0.5299,0.5298,0.5307,0.5324,0.533,0.5382,0.5374,0.5381,0.5391,0.5442,0.5443,0.5444,0.5437,0.5438,0.5439,0,0,0,0,0,0,0.5171,0.5204,0.5209,0.5233,0.5253,0.5281,0.5292,0.53,0.532,0.532,0.5339,0.5345,0.5369,0.5382,0.5373,0.5414,0.5412,0.5415,0.5404,0.5406,0.5406,0.5403,0.538,0,0,0,0,0,0.5171,0.519,0.5217,0.5236,0.5246,0.5267,0.528,0.529,0.5311,0.532,0.5338,0.5359,0.538,0.5394,0.5414,0.544,0.5447,0.545,0.5451,0.5451,0.5453,0.5469,0.5471,0.5448,0.5448,0.5448,0,0,0.5171,0.5191,0.5201,0.5234,0.525,0.527,0.5274,0.5295,0.531,0.5323,0.5348,0.5363,0.5387,0.5413,0.5425,0.5425,0.5461,0.5452,0.5453,0.5454,0.547,0.5473,0.5475,0.5449,0.5449,0.5449,0,0,0.518,0.5197,0.5215,0.5232,0.5258,0.5273,0.5277,0.5305,0.5315,0.5341,0.5352,0.537,0.5406,0.5424,0.5437,0.5456,0.5463,0.5463,0.5467,0.5482,0.5484,0.5486,0.5493,0.5496,0.5465,0.5465,0.5465,0,0.5177,0.5207,0.5224,0.5244,0.5259,0.5273,0.5292,0.5308,0.5339,0.5349,0.5348,0.5395,0.5412,0.5443,0.5448,0.5458,0.5465,0.5459,0.5482,0.5484,0.5486,0.5494,0.5497,0.5464,0.5464,0.5464,0.5464,0,0.5201,0.5222,0.5234,0.5265,0.5281,0.53,0.5321,0.5336,0.5345,0.536,0.5388,0.5409,0.5436,0.5444,0.5453,0.5477,0.5476,0.5479,0.5477,0.5488,0.5495,0.5498,0.5464,0.5464,0.5464,0.5464,0,0,0.5202,0.5243,0.5247,0.5262,0.5293,0.5309,0.5331,0.5357,0.537,0.5391,0.541,0.5441,0.5445,0.546,0.5472,0.5485,0.5501,0.5487,0.5487,0.5489,0.553,0.5528,0.5531,0.5506,0.5507,0.5507,0.5528,0,0.5216,0.5254,0.5271,0.5302,0.5322,0.5337,0.5356,0.5377,0.5392,0.5412,0.5429,0.5452,0.5454,0.5463,0.5478,0.5496,0.5509,0.5495,0.5524,0.5525,0.5518,0.5535,0.5532,0.5551,0.5531,0.5532,0.5532,0,0.5237,0.5259,0.5292,0.5322,0.5332,0.5348,0.5375,0.5394,0.5419,0.5429,0.5447,0.5459,0.5483,0.548,0.5514,0.5504,0.5517,0.5529,0.553,0.5533,0.5529,0.5539,0.5558,0.5561,0.5537,0.5536,0.5536,0,0.5235,0.5274,0.5299,0.5311,0.5346,0.5358,0.5373,0.5398,0.5414,0.5437,0.5448,0.5474,0.5488,0.5508,0.5527,0.5523,0.556,0.5558,0.5569,0.5569,0.5576,0.5575,0.5597,0.5584,0.5584,0.5584,0.5584,0,0.5249,0.5269,0.5299,0.5314,0.5338,0.5358,0.5381,0.5397,0.5419,0.5439,0.5454,0.5472,0.5495,0.5517,0.5532,0.5559,0.5565,0.5574,0.5578,0.5573,0.5572,0.5582,0.5581,0.5585,0.5585,0.5585,0.5584,0,0.525,0.5271,0.53,0.5332,0.534,0.5356,0.5384,0.54,0.5417,0.5442,0.5449,0.5475,0.5502,0.5523,0.5557,0.5567,0.5596,0.5599,0.5587,0.5589,0.56,0.5599,0.5629,0.5634,0.5617,0.5617,0.5618,0,0.5257,0.5273,0.5307,0.5322,0.5337,0.536,0.5377,0.5398,0.5414,0.5446,0.5458,0.5486,0.5509,0.5551,0.5574,0.5601,0.5605,0.5614,0.5609,0.5605,0.5607,0.5605,0.5608,0.5615,0.5615,0.5615,0.5615,0,0.5269,0.5279,0.5302,0.5329,0.5348,0.5371,0.5394,0.5405,0.5431,0.5449,0.5476,0.5494,0.5531,0.5558,0.5588,0.5604,0.5614,0.5617,0.5621,0.5616,0.5608,0.5613,0.5589,0.5616,0.5615,0.5615,0.5615,0.5615,0.5274,0.5289,0.5316,0.5342,0.5362,0.5383,0.5401,0.542,0.5444,0.5475,0.5486,0.5515,0.5542,0.5583,0.56,0.5624,0.5624,0.563,0.5632,0.5633,0.5633,0.5605,0.5629,0.5629,0.5629,0.5629,0.5629,0,0.5286,0.5305,0.5328,0.536,0.5381,0.539,0.5416,0.5433,0.5458,0.5482,0.5506,0.5538,0.5566,0.5592,0.5621,0.5635,0.564,0.5642,0.5641,0.5645,0.563,0.5624,0.5637,0.5637,0.5637,0.5637,0.5637,0.5637,0.5295,0.5322,0.5336,0.5374,0.5393,0.5421,0.5436,0.5456,0.5476,0.5512,0.5535,0.5552,0.5578,0.5609,0.5636,0.5642,0.5653,0.5653,0.5661,0.5647,0.5646,0.5645,0.5639,0.5655,0.5655,0.5675,0.5675,0.5675]},{"header":{"parameterUnit":"m.s-1","parameterCategory":1,"la1":30.2991,"la2":30.254,"lo1":-89.0895,"lo2":-89.0444,"dx":0.0017,"dy":0.0017,"nx":28,"ny":28,"refTime":"2022-11-30T15:00:00:Z","depth":0,"parameterNumber":3,"parameterNumberName":"V-component_of_WINDS"},"data":[0,0,0,0,0,0,0,0,0,0,0,0,0,0,0,0,0,0,0,0,0,0,0,0,0,0,0,0,0,0,0,0,0,0,0,0,0,0,0,0,0,0,0,0,0,0,0,0,0,0,0,0,0,0,0,0,0,0,-7.5216,-7.5216,0,-7.5196,-7.5196,-7.5196,-7.5148,-7.5147,-7.5146,-7.5145,-7.5122,-7.5122,-7.5123,0,0,0,0,0,0,0,0,0,0,0,0,0,-7.5211,-7.5212,-7.5216,-7.5216,-7.5216,-7.5196,-7.5196,-7.5196,-7.5149,-7.5147,-7.5146,-7.5145,-7.5122,-7.5122,-7.5123,0,0,0,0,0,0,0,0,0,0,0,0,0,-7.5205,-7.5212,-7.5216,-7.519,-7.5187,-7.5197,-7.5196,-7.5196,-7.5149,-7.5147,-7.5146,-7.5144,-7.5122,-7.5122,-7.5123,-7.5155,0,0,-7.5124,-7.5124,0,0,0,0,0,0,0,0,-7.5205,-7.5205,-7.5194,-7.5192,-7.5189,-7.5173,-7.5186,-7.5182,-7.5149,-7.5163,-7.5145,-7.5144,-7.514,-7.5139,-7.5138,-7.5154,-7.5153,-7.5124,-7.5124,-7.5125,-7.5125,0,0,0,0,0,0,0,-7.5206,-7.5205,-7.5208,-7.5194,-7.5191,-7.5178,-7.5176,-7.5185,-7.516,-7.5162,-7.5158,-7.5157,-7.5138,-7.5138,-7.5137,-7.5153,-7.5124,-7.5124,-7.5125,-7.5125,-7.5195,-7.5197,0,0,0,0,0,0,-7.521,-7.5206,-7.5209,-7.5208,-7.5194,-7.518,-7.5177,-7.518,-7.516,-7.5156,-7.5158,-7.5155,-7.5138,-7.5137,-7.5136,-7.5174,-7.5125,-7.5125,-7.5125,-7.5194,-7.5196,-7.5197,0,0,0,0,0,0,-7.521,-7.5211,-7.521,-7.5206,-7.5205,-7.5181,-7.5185,-7.518,-7.518,-7.5157,-7.5152,-7.5163,-7.5137,-7.5136,-7.5151,-7.5172,-7.5125,-7.5126,-7.5192,-7.5194,-7.5197,-7.5248,0,0,0,0,0,0,-7.521,-7.5211,-7.5223,-7.5207,-7.5205,-7.5225,-7.5186,-7.5181,-7.5181,-7.5176,-7.516,-7.5156,-7.5136,-7.5151,-7.5152,-7.5172,-7.5126,-7.519,-7.5193,-7.5196,-7.5244,-7.5252,-7.5258,0,0,0,0,0,-7.521,-7.5237,-7.5224,-7.5225,-7.522,-7.5226,-7.5226,-7.5203,-7.5183,-7.5195,-7.5181,-7.5156,-7.517,-7.5153,-7.5153,-7.5174,-7.5188,-7.5192,-7.5196,-7.5241,-7.525,-7.5258,0,0,0,0,0,0,-7.5255,-7.5235,-7.5219,-7.5242,-7.5237,-7.5219,-7.5232,-7.5213,-7.5212,-7.5208,-7.5179,-7.5175,-7.5195,-7.5186,-7.5167,-7.5205,-7.5175,-7.5179,-7.521,-7.5219,-7.5226,-7.5227,-7.5126,0,0,0,0,0,-7.5268,-7.5276,-7.5257,-7.5279,-7.5277,-7.5256,-7.5258,-7.5241,-7.5234,-7.5231,-7.5217,-7.521,-7.5213,-7.5216,-7.5217,-7.5244,-7.524,-7.5258,-7.5265,-7.5271,-7.5274,-7.5289,-7.5297,-7.5209,-7.5209,-7.5209,0,0,-7.5294,-7.5284,-7.529,-7.5288,-7.5281,-7.529,-7.5254,-7.5263,-7.5269,-7.5231,-7.5246,-7.5237,-7.5227,-7.5249,-7.5257,-7.5242,-7.5298,-7.5276,-7.5281,-7.5281,-7.5294,-7.5302,-7.5309,-7.5212,-7.5211,-7.5211,0,0,-7.5345,-7.5338,-7.5356,-7.5352,-7.5343,-7.533,-7.5334,-7.532,-7.5312,-7.5327,-7.5299,-7.5306,-7.5311,-7.5306,-7.5304,-7.5357,-7.5335,-7.5359,-7.5394,-7.5409,-7.5416,-7.5422,-7.5441,-7.5448,-7.5362,-7.5362,-7.5362,0,-7.5377,-7.5389,-7.5367,-7.538,-7.538,-7.5349,-7.5367,-7.5363,-7.5356,-7.5356,-7.534,-7.5347,-7.5339,-7.5359,-7.5373,-7.5372,-7.5376,-7.5359,-7.5417,-7.5423,-7.5428,-7.5446,-7.5453,-7.5365,-7.5365,-7.5365,-7.5364,0,-7.543,-7.544,-7.5455,-7.5451,-7.5453,-7.5468,-7.5448,-7.5453,-7.5437,-7.5425,-7.5441,-7.543,-7.543,-7.5434,-7.5417,-7.5452,-7.5443,-7.5422,-7.5391,-7.544,-7.5456,-7.5463,-7.5369,-7.5368,-7.5367,-7.5367,0,0,-7.5506,-7.5492,-7.5498,-7.5496,-7.5487,-7.5493,-7.5508,-7.5509,-7.5513,-7.551,-7.5521,-7.5529,-7.551,-7.5508,-7.5491,-7.5504,-7.5548,-7.5482,-7.5481,-7.5494,-7.5587,-7.5602,-7.561,-7.5534,-7.5535,-7.5536,-7.5587,0,-7.5554,-7.5578,-7.5561,-7.5588,-7.5597,-7.5569,-7.5582,-7.5577,-7.5567,-7.5573,-7.5561,-7.5567,-7.5542,-7.5541,-7.5553,-7.554,-7.5566,-7.5536,-7.5544,-7.5544,-7.5546,-7.5619,-7.5634,-7.5683,-7.5594,-7.5595,-7.5596,0,-7.5612,-7.5614,-7.5643,-7.5634,-7.5637,-7.5648,-7.5649,-7.5655,-7.565,-7.5642,-7.5642,-7.5622,-7.5636,-7.5608,-7.5626,-7.5607,-7.5609,-7.5604,-7.5605,-7.5603,-7.5572,-7.5618,-7.5697,-7.5705,-7.5605,-7.5605,-7.5604,0,-7.5665,-7.5674,-7.5693,-7.5692,-7.5682,-7.5691,-7.5687,-7.5681,-7.5684,-7.5684,-7.5686,-7.5688,-7.5688,-7.569,-7.5672,-7.5653,-7.5693,-7.5663,-7.5686,-7.5687,-7.5694,-7.5694,-7.5774,-7.5698,-7.5698,-7.5698,-7.5697,0,-7.5719,-7.5738,-7.5717,-7.5728,-7.5749,-7.5729,-7.5749,-7.5742,-7.5738,-7.5747,-7.5723,-7.5733,-7.5709,-7.5716,-7.5702,-7.572,-7.572,-7.5714,-7.5709,-7.5715,-7.5716,-7.5715,-7.5711,-7.57,-7.5699,-7.5699,-7.5698,0,-7.578,-7.5766,-7.5785,-7.5775,-7.5774,-7.5789,-7.578,-7.579,-7.5781,-7.5793,-7.5795,-7.5778,-7.5786,-7.5769,-7.5773,-7.5764,-7.5789,-7.578,-7.5791,-7.5788,-7.5812,-7.581,-7.5894,-7.5904,-7.5822,-7.5823,-7.5824,0,-7.5815,-7.5829,-7.5822,-7.5827,-7.5825,-7.5834,-7.5838,-7.5819,-7.5824,-7.5821,-7.5832,-7.5838,-7.5841,-7.5854,-7.5842,-7.5846,-7.5836,-7.5865,-7.5836,-7.5842,-7.5836,-7.5835,-7.5836,-7.587,-7.5871,-7.5872,-7.5873,0,-7.5879,-7.5872,-7.5879,-7.5884,-7.5889,-7.5891,-7.5892,-7.5898,-7.5878,-7.5885,-7.5893,-7.5896,-7.5902,-7.5908,-7.591,-7.5905,-7.5886,-7.5883,-7.5888,-7.5893,-7.5899,-7.5896,-7.5807,-7.588,-7.5879,-7.5879,-7.5879,-7.5878,-7.5927,-7.5939,-7.5937,-7.5945,-7.5945,-7.5947,-7.5956,-7.5949,-7.5956,-7.596,-7.5949,-7.596,-7.5957,-7.5957,-7.5955,-7.5963,-7.595,-7.5958,-7.5959,-7.5962,-7.5966,-7.59,-7.5963,-7.5963,-7.5963,-7.5963,-7.5963,0,-7.599,-7.5988,-7.5996,-7.5999,-7.6006,-7.599,-7.5991,-7.5997,-7.6008,-7.6007,-7.6012,-7.6022,-7.6029,-7.6019,-7.6024,-7.6033,-7.6024,-7.6035,-7.6033,-7.6032,-7.5977,-7.5972,-7.6041,-7.6041,-7.6041,-7.6041,-7.6041,-7.6041,-7.6023,-7.6043,-7.6036,-7.6056,-7.6054,-7.6066,-7.6067,-7.6069,-7.6069,-7.6082,-7.6088,-7.6083,-7.6078,-7.6083,-7.6089,-7.6086,-7.6088,-7.6102,-7.6096,-7.6044,-7.6036,-7.6029,-7.6023,-7.6103,-7.6103,-7.615,-7.615,-7.6151]}]]